Weather History for Glendale Luke AFB, AZ

Change the Weather History Date:

Tuesday, February 12, 2013

  Actual Average Record
Temperature  
Mean Temperature 44 °F -  
Max Temperature 57 °F 72 °F 89 °F (1930)
Min Temperature 32 °F 40 °F 25 °F (1933)
Degree Days  
Heating Degree Days 20    
Moisture  
Dew Point 32 °F    
Average Humidity 67    
Maximum Humidity 100    
Minimum Humidity 25    
Precipitation  
Precipitation 0.00 in - - ()
Sea Level Pressure  
Sea Level Pressure 30.24 in    
Wind  
Wind Speed 4 mph (North)    
Max Wind Speed 8 mph    
Max Gust Speed -    
Visibility 10 miles    
Events      
Averages and records for this station are not official NWS values.
T = Trace of Precipitation, MM = Missing Value Source: NWS Daily Summary

Daily Weather History Graph

Daily Weather History Graph

Search for Another Location

Airport:

Trip Planner

Search our weather history database for the weather conditions in past years. The results will help you decide how hot, cold, wet, or windy it might be!

Date:

Astronomy

Feb. 12, 2013 Rise Set
Actual Time 7:16 AM MST 6:11 PM MST
Civil Twilight 6:50 AM MST 6:37 PM MST
Nautical Twilight 6:21 AM MST 7:06 PM MST
Astronomical Twilight 5:52 AM MST 7:35 PM MST
Moon 8:26 AM MST (2/12) 9:04 PM MST (2/12)
Length of Visible Light 11h 46m
Length of Day
10h 55m
Waxing Crescent, 8% of the Moon is Illuminated
Feb 12
Waxing Crescent
Feb 17
First Quarter
Feb 25
Full
Mar 4
Last Quarter
Mar 11
New

Hourly Weather History & Observations

Time (MST) Temp. Windchill Dew Point Humidity Pressure Visibility Wind Dir Wind Speed Gust Speed Precip Events Conditions
12:58 AM 37.8 °F 34.2 °F 37.8 °F 100% 30.18 in 10.0 mi North 4.6 mph - N/A   Clear
1:58 AM 37.2 °F - 37.0 °F 99% 30.20 in 10.0 mi NNE 1.2 mph - N/A   Clear
2:58 AM 36.1 °F 32.3 °F 36.1 °F 100% 30.20 in 10.0 mi North 4.6 mph - N/A   Clear
3:58 AM 36.3 °F - 36.3 °F 100% 30.20 in 10.0 mi South 1.2 mph - N/A   Clear
4:58 AM 35.4 °F - 35.4 °F 100% 30.21 in 10.0 mi NNE 2.3 mph - N/A   Clear
5:58 AM 33.3 °F 30.2 °F 33.3 °F 100% 30.24 in 10.0 mi NE 3.5 mph - N/A   Clear
6:58 AM 32.9 °F 29.8 °F 32.9 °F 100% 30.26 in 10.0 mi NNW 3.5 mph - N/A   Clear
7:58 AM 34.5 °F 30.4 °F 34.5 °F 100% 30.29 in 10.0 mi NNW 4.6 mph - N/A   Clear
8:58 AM 40.8 °F - 36.7 °F 85% 30.30 in 10.0 mi NNE 2.3 mph - N/A   Clear
9:58 AM 42.4 °F - 37.4 °F 82% 30.32 in 10.0 mi ENE 2.3 mph - N/A   Clear
10:58 AM 46.8 °F - 36.7 °F 68% 30.32 in 10.0 mi ESE 3.5 mph - N/A   Clear
11:58 AM 48.6 °F - 35.2 °F 60% 30.31 in 10.0 mi Calm Calm - N/A   Clear
12:58 PM 52.0 °F - 31.3 °F 45% 30.28 in 10.0 mi Variable 2.3 mph - N/A   Clear
1:58 PM 53.8 °F - 26.8 °F 35% 30.25 in 10.0 mi NNW 5.8 mph - N/A   Clear
2:58 PM 54.9 °F - 27.0 °F 34% 30.23 in 10.0 mi WSW 5.8 mph - N/A   Clear
3:58 PM 56.1 °F - 24.3 °F 29% 30.21 in 10.0 mi WNW 2.3 mph - N/A   Clear
4:58 PM 57.2 °F - 21.0 °F 25% 30.21 in 10.0 mi Variable 3.5 mph - N/A   Clear
5:58 PM 55.9 °F - 24.1 °F 29% 30.21 in 10.0 mi SW 8.1 mph - N/A   Clear
6:58 PM 53.1 °F - 24.8 °F 33% 30.21 in 10.0 mi SSW 6.9 mph - N/A   Clear
7:58 PM 51.3 °F - 24.6 °F 35% 30.22 in 10.0 mi South 6.9 mph - N/A   Clear
8:58 PM 49.1 °F - 27.7 °F 44% 30.22 in 10.0 mi SW 3.5 mph - N/A   Clear
9:58 PM 43.0 °F - 32.4 °F 66% 30.23 in 10.0 mi Calm Calm - N/A   Clear
10:58 PM 42.6 °F 39.9 °F 32.5 °F 68% 30.22 in 10.0 mi North 4.6 mph - N/A   Clear
11:58 PM 42.1 °F 38.4 °F 30.6 °F 64% 30.21 in 10.0 mi North 5.8 mph - N/A   Clear